Le nostre stazioni meteo in Italia

Pubblicità
Il mio iltempo24.it
Luqa, Malta (16597): Temperatura & dewpoint: 10.07.2018 20:00:00 - 16.07.2018 20:00:00 (CEST)Luqa, Malta (16597): velocità del vento: 10.07.2018 20:00:00 - 16.07.2018 20:00:00 (CEST)Luqa, Malta (16597): direzione del vento: 10.07.2018 20:00:00 - 16.07.2018 20:00:00 (CEST)Luqa, Malta (16597): reduced air pressure: 10.07.2018 20:00:00 - 16.07.2018 20:00:00 (CEST)Luqa, Malta (16597): visibility: 10.07.2018 20:00:00 - 16.07.2018 20:00:00 (CEST)
Data & Tempo tt [°C] td [°C] ff [km/h] ff [kn] dd ppp [hPa] vv [km]
16.07.2018 20:00:00 26,9 22,9 4 2 - 1014,7 10
16.07.2018 19:00:00 28,0 23,0 9 5 OSO - 10
16.07.2018 18:00:00 28,0 22,0 15 8 SSO - 10
16.07.2018 17:00:00 30,0 20,0 21 11 S - 10
16.07.2018 16:00:00 31,0 20,0 18 10 S - 10
16.07.2018 15:00:00 32,0 19,0 18 10 SE - 10
16.07.2018 14:00:00 31,5 20,4 13 7 E 1015,1 20
16.07.2018 13:00:00 32,0 19,0 9 5 E - 10
16.07.2018 12:00:00 31,0 18,0 11 6 NE - 10
16.07.2018 11:00:00 30,1 20,9 13 7 ENE 1015,9 10
16.07.2018 10:00:00 29,0 22,0 13 7 E - 10
16.07.2018 09:00:00 28,0 22,0 9 5 E - 10
16.07.2018 08:00:00 26,0 22,7 9 5 ENE 1014,6 10
16.07.2018 07:00:00 25,0 23,0 8 4 NNE - 10
16.07.2018 06:00:00 25,0 22,0 8 4 ENE - 10
16.07.2018 05:00:00 23,6 22,2 4 2 - 1013,6 10
16.07.2018 04:00:00 24,0 23,0 8 4 NNE - 9
16.07.2018 03:00:00 25,0 23,0 8 4 ENE - 10
16.07.2018 02:00:00 25,0 22,4 11 6 NNE 1013,9 10
16.07.2018 01:00:00 25,0 22,0 4 2 - - 10
16.07.2018 00:00:00 25,0 22,0 5 3 N - 10
15.07.2018 23:00:00 25,6 22,0 9 5 NO 1013,7 10
15.07.2018 22:00:00 26,0 22,0 9 5 NNO - 9
15.07.2018 21:00:00 26,0 22,0 15 8 NNO - 10
15.07.2018 20:00:00 26,6 22,2 21 11 NNO 1013,0 9
15.07.2018 19:00:00 28,0 22,0 24 13 N - 10
15.07.2018 18:00:00 29,0 22,0 26 14 N - 10
15.07.2018 17:00:00 29,9 22,0 26 14 NNO 1013,0 10
15.07.2018 16:00:00 30,0 22,0 28 15 NNO - 10
15.07.2018 15:00:00 30,0 21,0 26 14 NNO - 10
15.07.2018 14:00:00 30,8 20,8 31 17 ONO 1013,7 10
15.07.2018 13:00:00 31,0 20,0 22 12 N - 10
15.07.2018 12:00:00 30,0 21,0 24 13 N - 10
15.07.2018 11:00:00 29,5 21,3 21 11 NNO 1014,5 10
15.07.2018 10:00:00 29,0 21,0 24 13 NNO - 10
15.07.2018 09:00:00 27,0 21,0 31 17 NNO - 10
15.07.2018 08:00:00 25,9 21,6 28 15 NNO 1014,3 9
15.07.2018 07:00:00 25,0 23,0 21 11 NNO - 7
15.07.2018 06:00:00 24,0 23,0 16 9 NNO - 8
15.07.2018 05:00:00 25,3 18,6 8 4 NNO 1014,0 10
15.07.2018 04:00:00 25,0 16,0 11 6 ONO - 10
15.07.2018 03:00:00 27,0 13,0 5 3 OSO - 10
15.07.2018 02:00:00 26,3 15,6 9 5 OSO 1015,1 10
15.07.2018 01:00:00 27,0 16,0 9 5 OSO - 10
15.07.2018 00:00:00 26,0 15,0 5 3 O - 10
14.07.2018 23:00:00 26,6 16,9 5 3 NO 1016,0 10
14.07.2018 22:00:00 27,0 16,0 4 2 O - 10
14.07.2018 21:00:00 28,0 15,0 0 0 N - 10
14.07.2018 20:00:00 29,7 14,8 9 5 S 1014,8 10
14.07.2018 19:00:00 31,0 13,0 11 6 S - 10
14.07.2018 18:00:00 32,0 12,0 9 5 SSO - 10
14.07.2018 17:00:00 32,2 14,9 9 5 SSO 1015,5 10
14.07.2018 16:00:00 33,0 13,0 13 7 SSO - 10
14.07.2018 15:00:00 32,0 13,0 13 7 SSO - 10
14.07.2018 14:00:00 33,2 13,1 11 6 SSO 1016,4 10
14.07.2018 13:00:00 33,0 13,0 11 6 S - 10
14.07.2018 12:00:00 34,0 10,0 9 5 ESE - 10
14.07.2018 11:00:00 34,6 8,8 11 6 NE 1016,7 10
14.07.2018 10:00:00 34,0 9,0 8 4 N - 10
14.07.2018 09:00:00 32,0 7,0 8 4 NNO - 10
14.07.2018 08:00:00 29,9 8,5 2 1 - 1016,2 10
14.07.2018 07:00:00 26,0 10,0 4 2 O - 10
14.07.2018 06:00:00 24,0 10,0 5 3 ONO - 10
14.07.2018 05:00:00 24,1 10,6 5 3 O 1016,3 10
14.07.2018 04:00:00 24,0 12,0 5 3 NO - 10
14.07.2018 03:00:00 25,0 12,0 0 0 N - 10
14.07.2018 02:00:00 25,6 16,8 9 5 N 1016,5 10
14.07.2018 01:00:00 26,0 19,0 8 4 OSO - 10
14.07.2018 00:00:00 27,0 18,0 9 5 SSO - 10
13.07.2018 23:00:00 26,8 16,0 5 3 OSO 1016,6 10
13.07.2018 22:00:00 27,0 15,0 2 1 - - 10
13.07.2018 21:00:00 27,0 20,0 8 4 O - 10
13.07.2018 20:00:00 28,5 18,3 13 7 OSO 1015,8 10
13.07.2018 19:00:00 30,0 18,0 13 7 OSO - 10
13.07.2018 18:00:00 32,0 13,0 13 7 O - 10
13.07.2018 17:00:00 32,6 12,6 15 8 OSO 1016,3 10
13.07.2018 16:00:00 32,0 15,0 13 7 SO - 10
13.07.2018 15:00:00 33,0 17,0 15 8 SO - 10
13.07.2018 14:00:00 33,0 17,8 11 6 SO 1017,1 10
13.07.2018 13:00:00 34,0 16,0 15 8 SE - 10
13.07.2018 12:00:00 35,0 11,0 4 2 - - 10
13.07.2018 11:00:00 33,9 11,9 11 6 N 1017,6 10
13.07.2018 10:00:00 33,0 11,0 9 5 NO - 10
13.07.2018 09:00:00 31,0 14,0 8 4 N - 10
13.07.2018 08:00:00 27,9 14,0 4 2 - 1016,9 10
13.07.2018 07:00:00 25,0 19,0 8 4 O - 10
13.07.2018 06:00:00 23,0 14,0 9 5 SO - 10
13.07.2018 05:00:00 23,1 14,5 5 3 OSO 1016,2 10
13.07.2018 04:00:00 24,0 14,0 4 2 ONO - 10
13.07.2018 03:00:00 23,0 15,0 2 1 NO - 10
13.07.2018 02:00:00 24,2 17,1 8 4 NNO 1016,9 10
13.07.2018 01:00:00 24,0 19,0 2 1 N - 10
13.07.2018 00:00:00 24,0 19,0 4 2 NO - 10
12.07.2018 23:00:00 24,9 19,5 2 1 ESE 1016,9 10
12.07.2018 22:00:00 25,0 20,0 9 5 SSE - 10
12.07.2018 21:00:00 26,0 19,0 11 6 SSE - 10
12.07.2018 20:00:00 28,4 17,8 8 4 SE 1016,1 10
12.07.2018 19:00:00 30,0 15,0 9 5 OSO - 10
12.07.2018 18:00:00 31,0 14,0 13 7 O - 10
12.07.2018 17:00:00 31,8 14,5 13 7 O 1015,7 10
12.07.2018 16:00:00 32,0 15,0 16 9 OSO - 10
12.07.2018 15:00:00 33,0 14,0 16 9 OSO - 10
12.07.2018 14:00:00 33,0 12,1 11 6 NNO 1016,3 10
12.07.2018 13:00:00 33,0 13,0 15 8 N - 10
12.07.2018 12:00:00 32,0 13,0 15 8 N - 10
12.07.2018 11:00:00 31,0 13,8 13 7 N 1016,8 10
12.07.2018 10:00:00 31,0 14,0 11 6 N - 10
12.07.2018 09:00:00 28,0 17,0 8 4 NNO - 10
12.07.2018 08:00:00 25,3 19,7 9 5 N 1015,9 10
12.07.2018 07:00:00 24,0 22,0 13 7 NNO - 10
12.07.2018 06:00:00 23,0 22,0 9 5 N - 10
12.07.2018 05:00:00 23,2 21,6 5 3 ONO 1015,3 10
12.07.2018 04:00:00 23,0 22,0 16 9 ONO - 10
12.07.2018 03:00:00 23,0 22,0 11 6 ONO - 10
12.07.2018 02:00:00 23,5 21,5 9 5 O 1015,8 10
12.07.2018 01:00:00 24,0 22,0 13 7 O - 10
12.07.2018 00:00:00 24,0 22,0 11 6 O - 10
11.07.2018 23:00:00 23,9 21,8 13 7 O 1016,1 10
11.07.2018 22:00:00 24,0 22,0 11 6 OSO - 10
11.07.2018 21:00:00 24,0 22,0 13 7 O - 10
11.07.2018 20:00:00 25,4 21,1 15 8 O 1014,9 10
11.07.2018 19:00:00 26,0 21,0 15 8 O - 10
11.07.2018 18:00:00 27,0 20,0 15 8 O - 10
11.07.2018 17:00:00 28,2 19,4 16 9 O 1014,6 10
11.07.2018 16:00:00 29,0 18,0 18 10 O - 10
11.07.2018 15:00:00 29,0 17,0 22 12 NO - 10
11.07.2018 14:00:00 29,1 18,4 11 6 N 1015,1 10
11.07.2018 13:00:00 29,0 18,0 15 8 NO - 10
11.07.2018 12:00:00 29,0 18,0 21 11 NNO - 10
11.07.2018 11:00:00 28,3 17,7 16 9 NNO 1015,5 10
11.07.2018 10:00:00 27,0 19,0 15 8 NNO - 10
11.07.2018 09:00:00 26,0 19,0 15 8 NO - 10
11.07.2018 08:00:00 24,1 20,8 15 8 NO 1015,0 10
11.07.2018 07:00:00 23,0 21,0 8 4 NO - 8
11.07.2018 06:00:00 21,0 20,0 4 2 SSE - 9
11.07.2018 05:00:00 21,7 20,4 4 2 O 1014,2 10
11.07.2018 04:00:00 22,0 21,0 8 4 N - 10
11.07.2018 03:00:00 22,0 20,0 4 2 - - 10
11.07.2018 02:00:00 22,9 19,3 9 5 O 1014,9 10
11.07.2018 01:00:00 22,0 17,0 9 5 OSO - 10
11.07.2018 00:00:00 23,0 20,0 4 2 O - 10
10.07.2018 23:00:00 23,2 20,7 5 3 O 1015,4 10
10.07.2018 22:00:00 24,0 21,0 9 5 N - 10
10.07.2018 21:00:00 24,0 21,0 13 7 N - 10
10.07.2018 20:00:00 25,8 21,0 18 10 N 1014,4 10

tt = Temperatura
td = dewpoint
ff = velocità del vento
dd = direzione del vento
ppp = reduced air pressure
vv = visibility

Stazioni seguenti

WeatherPro
AMSI
MeteoEarth